Location: Saluda
(35.2377°N, 82.3468°W)
Time: 23:41:00
(UTC+00:00)

Tiros 1 - Pass Details

Date: 03 October 2022
Orbit: 629 x 662 km, 48.4° (Epoch: 09 December)

Event Time Altitude Azimuth Distance (km) Brightness Sun altitude
Exits shadow 09:50:38 17° 328° (NNW) 1,664 9.0 -20.2°
Maximum altitude 09:53:49 35° 27° (NNE) 1,037 8.5 -19.6°
Drops below altitude 10° 09:58:08 10° 94° (E) 2,033 10.9 -18.7°
Sets 10:00:37 0° 103° (ESE) 2,935 11.8 -18.2°
